BANGABANDHUSAT-1

Last updated on Sat Jun 14 2025 00:02:47 GMT+0000 (Coordinated Universal Time)

1 43463U 18044A 25164.58308520 -.00000348 00000+0 00000+0 0 9990 2 43463 0.0153 32.2694 0002417 54.3647 144.4931 1.00265944 26016
UTC large
Height (km)
Speed (km/s)
/
Latitude / Longitude
Inclination (degrees)
Orbital Period (minutes)
Azimuth
Elevation
Range (km)
Doppler Factor

Next 0 passes for location: London (51.5072 / 0.1276)

Sorry there are no passes over London.